STARLINK-5185, 54100

Orbit data source: Space-Track

STARLINK-5185, 54100 is a payload satellite owned by SpaceX/Seattle (US) in LEO that was launched on Thu, 20 Oct 2022 UTC via an FALCON 9 launch vehicle from the Air Force Eastern Test Range (AFETR). Payload-class satellites include a variety of spacecraft equipped with specific instruments for various scientific and technological missions. These include communications satellites like Starlink; space stations such as the ISS; scientific satellites like the Hubble; Earth observation satellites from companies like Planet Labs, Umbra, and HawkEye 360; GPS; miniature CubeSats for education and research; and military/defense satellites.

Loading next visibility...
Identifier
54100, 2022-136BB
Orbit
LEO
Country
Flag of USUS
Related business
Manufacturer
SpaceX/Seattle
Mission
Operational Commercial Communications
Bus & Motor
STARLINK, Unknown motor
Mass
305 kg wet, ~290 kg dry
Launch date (UTC)
2022-10-20 (3 years ago)
Launch vehicle
FALCON 9
Launch site
Air Force Eastern Test Range (AFETR)
Object type
Payload
Rocket body
Debris
Shape & HBR
Box + 1 Pan, 10.1 m
Radar Cross Section
13.562 m², Large (>1 m²)

Expand to show TLE details & history
Last TLE update: 12 hours ago

TLE from 12 hours ago
0 STARLINK-5185
1 54100U 22136BB  25304.02809289 -.00001048  00000-0 -47725-4 0  9990
2 54100  53.2169 195.9071 0001351  87.7756 272.3391 15.08848327167412
Epoch: 2025-10-31T00:40Z
TLE epoch observation values (Epoch: 2025-10-31T00:40:27.225Z)
Latitude
-0.00002°
Longitude
146.21524°
Altitude
540.577 km
Speed
7.593 km/s
True Right ascension
13h 03m 37s
True Declination
0° 00' 00"
Sunlit
Object was in daylight at epoch
Visualization orbit readout
Latitude
Unknown
Longitude
Unknown
Altitude
Unknown
Speed
Unknown
Apparent Right ascension
Unknown
Apparent Declination
Unknown
Sunlit
N/A
Visualization observer readout
Local Sidereal Time
08:46:54
Azimuth
Unknown
Elevation
Unknown
Doppler factor
Unknown
Orbital elements
Apogee altitude
540.898 km
Perigee altitude
539.028 km
Semi-major axis
6,918.1 km
Eccentricity
0.00014
Inclination
53.2169°
RAAN
195.9071°
Arg. of periapsis
87.7756°
True anomaly
272.32363°
Mean anomaly
272.3391°
Eccentric anomaly
272.33137°
Mean motion
3.77192 °/min
Orbital period
95.44 mins
BSTAR
-0.000047725
Loading maneuver chart data...
Computing Atmospheric mass density...
Loading historical data...
Loading historical data...
Loading historical data...
Loading historical data...
Loading historical data...
Loading historical data...
Loading historical data...

Documentation

Showing up to 5 results
|